User: anonymous   Login
Location: Granada
(37.1830°N, 3.6000°W)
Time: 10:20:38
(UTC+02:00)
Language:

Iridium 70 - Orbit

View from above orbital plane
View from above orbital plane
View from above satellite
View from above satellite

Ground track
Ground track

The orbit data is extracted from the following two-line orbital elements,

1 25342U 98032A   16273.50657515  .00000030  00000-0  35111-5 0  9990
2 25342  86.3986 333.2303 0002346  98.4317  26.2872 14.34225544961739
Epoch (UTC): 29 September 2016 12:09:28
Eccentricity: 0.0002346
inclination: 86.3986°
perigee height: 776 km
apogee height: 779 km
right ascension of ascending node: 333.2303°
argument of perigee: 98.4317°
revolutions per day: 14.34225544
mean anomaly at epoch: 26.2872°
orbit number at epoch: 96173

The dashed part of the orbit path shows where the satellite is in the earth's shadow,  

DLR